QPF
0.00 0.00 0.00 0.00 0.00 0.00 0.00 0.00 0.00 0.00 0.00 0.00 0.00 0.00 0.00 0.00 0.00 0.00 0.00 0.00 0.00 0.00 0.00 0.00 0.00 0.00 0.00 0.00 0.00 0.00 0.00 0.00 0.00 0.00 0.00 0.00 0.00 0.00
0.00 0.00 0.00 0.00 0.00 0.00 0.00 0.00 0.00 0.00 0.00 0.00 0.00 0.00 0.00 0.00 0.00 0.00 0.00 0.00 0.00 0.00 0.00 0.00 0.00 0.00 0.00 0.00 0.00 0.00 0.00 0.00 0.00 0.00 0.00 0.00 0.00 0.00
0.00 0.00 0.00 0.00 0.00 0.00 0.00 0.00 0.00 0.00 0.00 0.00 0.00 0.00 0.00 0.00 0.00 0.00 0.00 0.00 0.00 0.00 0.00 0.00 0.00 0.00 0.00 0.00 0.00 0.00 0.00 0.00 0.00 0.00 0.00 0.00 0.00 0.00
0.00 0.00 0.00 0.00 0.00 0.00 0.00 0.00 0.00 0.00 0.00 0.00 0.00 0.00 0.00 0.00 0.00 0.00 0.00 0.00 0.00 0.00 0.00 0.00 0.00 0.00 0.00 0.00 0.00 0.00 0.00 0.00 0.00 0.00 0.00 0.00 0.00 0.00
0.00 0.00 0.00 0.00 0.00 0.00 0.00 0.00 0.00 0.00 0.00 0.00 0.00 0.00 0.00 0.00 0.00 0.00 0.00 0.00 0.00 0.00 0.00 0.00 0.00 0.00 0.00 0.00 0.00 0.00 0.00 0.00 0.00 0.00 0.00 0.00 0.00 0.00
0.00 0.00 0.00 0.00 0.00 0.00 0.00 0.00 0.00 0.00 0.00 0.00 0.00 0.00 0.00 0.00 0.00 0.00 0.00 0.00 0.00 0.00 0.00 0.00 0.00 0.00 0.00 0.00 0.00 0.00 0.00 0.00 0.00 0.00 0.00 0.00 0.00 0.00
0.00 0.00 0.00 0.00 0.00 0.00 0.00 0.00 0.00 0.00 0.00 0.00 0.00 0.00 0.00 0.00 0.00 0.00 0.00 0.00 0.00 0.00 0.00 0.00 0.00 0.00 0.00 0.00 0.00 0.00 0.00 0.00 0.00 0.00 0.00 0.00 0.00 0.00
0.00 0.00 0.00 0.00 0.00 0.00 0.00 0.00 0.00 0.00 0.00 0.00 0.00 0.00 0.00 0.00 0.00 0.00 0.00 0.00 0.00 0.00 0.00 0.00 0.00 0.00 0.00 0.00 0.00 0.00 0.00 0.00 0.00 0.00 0.00 0.00 0.00 0.00
0.00 0.00 0.00 0.00 0.00 0.00 0.00 0.00 0.00 0.00 0.00 0.00 0.00 0.00 0.00 0.00 0.00 0.00 0.00 0.00 0.00 0.00 0.00 0.00 0.00 0.00 0.00 0.00 0.00 0.00 0.00 0.00 0.00 0.00 0.00 0.00 0.00 0.00
0.00 0.00 0.00 0.00 0.00 0.00 0.00 0.00 0.00 0.00 0.00 0.00 0.00 0.00 0.00 0.00 0.00 0.00 0.00 0.00 0.00 0.00 0.00 0.00 0.00 0.00 0.00 0.00 0.00 0.00 0.00 0.00 0.00 0.00 0.00 0.00 0.00 0.00
0.00 0.00 0.00 0.00 0.00 0.00 0.00 0.00 0.00 0.00 0.00 0.00 0.00 0.00 0.00 0.00 0.00 0.00 0.00 0.00 0.00 0.00 0.00 0.00 0.00 0.00 0.00 0.00 0.00 0.00 0.00 0.00 0.00 0.00 0.00 0.00 0.00 0.00
0.00 0.00 0.00 0.00 0.00 0.00 0.00 0.00 0.00 0.00 0.00 0.00 0.00 0.00 0.00 0.00 0.00 0.00 0.00 0.00 0.00 0.00 0.00 0.00 0.00 0.00 0.00 0.00 0.00 0.00 0.00 0.00 0.00 0.00 0.00 0.00 0.00 0.00
0.00 0.00 0.00 0.00 0.00 0.00 0.00 0.00 0.00 0.00 0.00 0.00 0.00 0.00 0.00 0.00 0.00 0.00 0.00 0.00 0.00 0.00 0.00 0.00 0.00 0.00 0.00 0.00 0.00 0.00 0.00 0.00 0.00 0.00 0.00 0.00 0.00 0.00
0.00 0.00 0.00 0.00 0.00 0.00 0.00 0.00 0.00 0.00 0.00 0.00 0.00 0.00 0.00 0.00 0.00 0.00 0.00 0.00 0.00 0.00 0.00 0.00 0.00 0.00 0.00 0.00 0.00 0.00 0.00 0.00 0.00 0.00 0.00 0.00 0.00 0.00
0.00 0.00 0.00 0.00 0.00 0.00 0.00 0.00 0.00 0.00 0.00 0.00 0.00 0.00 0.00 0.00 0.00 0.00 0.00 0.00 0.00 0.00 0.00 0.00 0.00 0.00 0.00 0.00 0.00 0.00 0.00 0.00 0.00 0.00 0.00 0.00 0.00 0.00
0.00 0.00 0.00 0.00 0.00 0.00 0.00 0.00 0.00 0.00 0.00 0.00 0.00 0.00 0.00 0.00 0.00 0.00 0.00 0.00 0.00 0.00 0.00 0.00 0.00 0.00 0.00 0.00 0.00 0.00 0.00 0.00 0.00 0.00 0.00 0.00 0.00 0.00
0.00 0.00 0.00 0.00 0.00 0.00 0.00 0.00 0.00 0.00 0.00 0.00 0.00 0.00 0.00 0.00 0.00 0.00 0.00 0.00 0.00 0.00 0.00 0.00 0.00 0.00 0.00 0.00 0.00 0.00 0.00 0.00 0.00 0.00 0.00 0.00 0.00 0.00
0.00 0.00 0.00 0.00 0.00 0.00 0.00 0.00 0.00 0.00 0.00 0.00 0.00 0.00 0.00 0.00 0.00 0.00 0.00 0.00 0.00 0.00 0.00 0.00 0.00 0.00 0.00 0.00 0.00 0.00 0.00 0.00 0.00 0.00 0.00 0.00 0.00 0.00
0.00 0.00 0.00 0.00 0.00 0.00 0.00 0.00 0.00 0.00 0.00 0.00 0.00 0.00 0.00 0.00 0.00 0.00 0.00 0.00 0.00 0.00 0.00 0.00 0.00 0.00 0.00 0.00 0.00 0.00 0.00 0.00 0.00 0.00 0.00 0.00 0.00 0.00
0.00 0.00 0.00 0.00 0.00 0.00 0.00 0.00 0.00 0.00 0.00 0.00 0.00 0.00 0.00 0.00 0.00 0.00 0.00 0.00 0.00 0.00 0.00 0.00 0.00 0.00 0.00 0.00 0.00 0.00 0.00 0.00 0.00 0.00 0.00 0.00 0.00 0.00
0.00 0.00 0.00 0.00 0.00 0.00 0.00 0.00 0.00 0.00 0.00 0.00 0.00 0.00 0.00 0.00 0.00 0.00 0.00 0.00 0.00 0.00 0.00 0.00 0.00 0.00 0.00 0.00 0.00 0.00 0.00 0.00 0.00 0.00 0.00 0.00 0.00 0.00
0.00 0.00 0.00 0.00 0.00 0.00 0.00 0.00 0.00 0.00 0.00 0.00 0.00 0.00 0.00 0.00 0.00 0.00 0.00 0.00 0.00 0.00 0.00 0.00 0.00 0.00 0.00 0.00 0.00 0.00 0.00 0.00 0.00 0.00 0.00 0.00 0.00 0.00
0.00 0.00 0.00 0.00 0.00 0.00 0.00 0.00 0.00 0.00 0.00 0.00 0.00 0.00 0.00 0.00 0.00 0.00 0.00 0.00 0.00 0.00 0.00 0.00 0.00 0.00 0.00 0.00 0.00 0.00 0.00 0.00 0.00 0.00 0.00 0.00 0.00 0.00
MSLP
1019.63 1019.49 1019.38 1019.13 1018.98 1019.15 1019.02 1019.32 1019.70 1020.91 1021.64 1021.60 1021.62 1021.46 1021.46 1021.35 1021.37 1021.51 1021.43 1021.41 1021.36 1021.06 1020.79 1020.81 1020.61 1020.61 1020.40 1020.17 1019.92 1019.70 1019.61 1019.49 1019.32 1019.05 1018.77 1018.44 1018.06 1017.62
1019.95 1019.80 1019.65 1019.52 1019.38 1019.32 1019.35 1019.36 1019.62 1020.37 1021.49 1021.70 1021.79 1021.74 1021.50 1021.56 1021.75 1021.80 1021.50 1021.38 1021.54 1021.39 1021.15 1021.05 1021.23 1021.15 1021.04 1020.81 1020.72 1020.51 1020.33 1020.16 1019.94 1019.68 1019.40 1019.15 1018.75 1018.39
1020.31 1020.22 1020.26 1020.04 1020.02 1020.00 1019.79 1019.73 1019.95 1020.21 1021.19 1021.97 1022.12 1021.98 1022.06 1021.99 1022.02 1022.11 1022.06 1021.93 1022.04 1021.89 1021.82 1021.63 1021.66 1021.75 1021.69 1021.48 1021.33 1021.26 1020.93 1020.66 1020.44 1020.30 1019.99 1019.61 1019.28 1018.91
1020.70 1020.66 1020.69 1020.41 1020.48 1020.49 1020.22 1020.29 1020.31 1020.64 1021.25 1022.29 1022.61 1022.70 1022.33 1022.23 1022.13 1022.24 1022.19 1022.07 1022.09 1022.05 1022.06 1022.04 1022.06 1022.06 1022.23 1022.19 1021.96 1021.72 1021.42 1021.08 1020.95 1020.74 1020.61 1020.29 1019.86 1019.39
1020.83 1020.91 1020.98 1020.75 1020.96 1020.89 1020.74 1020.81 1021.00 1021.28 1021.70 1022.23 1023.11 1023.08 1022.65 1022.37 1022.40 1022.30 1022.17 1022.28 1022.12 1022.26 1022.29 1022.24 1022.28 1022.29 1022.46 1022.48 1022.35 1022.20 1022.00 1021.51 1021.19 1021.15 1020.95 1020.59 1020.21 1019.88
1021.11 1021.10 1021.16 1020.94 1020.95 1021.03 1021.12 1021.26 1021.33 1021.76 1022.30 1022.78 1023.34 1023.44 1023.22 1023.03 1022.95 1023.10 1022.90 1022.78 1022.64 1022.09 1022.25 1022.36 1022.50 1022.55 1022.55 1022.54 1022.51 1022.43 1022.26 1021.93 1021.61 1021.38 1021.22 1020.86 1020.42 1019.87
1021.65 1021.30 1021.15 1020.81 1020.88 1021.04 1021.06 1021.46 1021.53 1022.19 1022.71 1023.19 1023.60 1023.70 1023.77 1023.73 1023.81 1023.69 1023.55 1023.36 1023.19 1022.77 1022.81 1022.77 1022.88 1022.88 1022.84 1022.76 1022.63 1022.50 1022.40 1022.06 1021.79 1021.67 1021.47 1021.19 1020.74 1020.26
1021.85 1021.75 1021.51 1021.23 1021.21 1021.02 1021.06 1021.30 1021.34 1021.95 1022.59 1023.12 1023.69 1024.10 1024.22 1024.16 1023.97 1023.80 1023.74 1023.73 1023.91 1023.56 1023.31 1023.20 1022.97 1022.91 1022.80 1022.97 1022.66 1022.55 1022.46 1022.30 1022.25 1022.10 1021.80 1021.55 1021.23 1020.72
1021.99 1021.90 1021.77 1021.66 1021.81 1021.80 1021.65 1021.74 1021.79 1021.94 1022.09 1022.59 1023.42 1023.79 1023.96 1023.97 1023.81 1023.77 1023.78 1023.88 1024.01 1023.95 1023.81 1023.75 1023.31 1023.05 1022.89 1022.72 1022.66 1022.63 1022.69 1022.56 1022.17 1021.94 1021.84 1021.72 1021.45 1021.18
1021.86 1021.83 1021.85 1021.97 1022.06 1021.97 1022.12 1022.31 1022.47 1022.61 1022.86 1022.92 1023.22 1023.46 1023.40 1023.63 1023.49 1023.44 1023.72 1023.94 1023.93 1023.73 1023.74 1024.18 1023.81 1023.59 1023.31 1023.13 1022.85 1022.89 1022.71 1022.43 1022.23 1021.99 1021.87 1021.81 1021.58 1021.33
1021.62 1021.76 1021.95 1021.96 1021.75 1021.95 1022.34 1022.70 1022.84 1022.94 1022.86 1022.96 1023.01 1023.19 1023.25 1023.14 1023.28 1023.69 1023.98 1024.24 1024.67 1024.31 1024.01 1024.18 1024.10 1023.95 1023.56 1023.36 1023.01 1022.87 1022.81 1022.71 1022.43 1022.10 1021.87 1021.72 1021.49 1021.26
1021.77 1021.79 1021.64 1021.83 1021.63 1021.72 1022.12 1022.51 1022.82 1022.81 1022.77 1022.94 1023.18 1023.31 1023.27 1023.37 1023.21 1023.39 1023.69 1024.26 1024.54 1024.57 1024.03 1024.34 1024.38 1024.13 1024.07 1023.38 1023.12 1022.87 1022.80 1022.69 1022.56 1022.29 1022.14 1022.04 1021.73 1021.53
1021.65 1021.74 1021.60 1021.46 1021.71 1022.01 1022.19 1022.74 1022.87 1023.11 1023.07 1023.15 1023.26 1023.32 1023.42 1023.50 1023.47 1023.48 1023.65 1023.77 1024.24 1024.35 1023.99 1024.08 1024.41 1024.38 1024.33 1024.02 1023.44 1022.98 1022.91 1023.04 1022.87 1022.42 1022.24 1021.96 1021.71 1021.60
1021.27 1021.29 1021.40 1021.56 1021.81 1021.91 1022.14 1022.30 1022.55 1022.86 1023.35 1023.45 1023.59 1023.73 1023.83 1023.81 1023.63 1023.55 1023.59 1023.60 1023.46 1023.35 1023.32 1023.47 1023.83 1024.07 1024.24 1024.43 1024.28 1023.50 1023.28 1023.04 1022.94 1022.63 1022.25 1021.84 1021.58 1021.37
1020.65 1020.86 1021.20 1021.72 1021.80 1021.73 1021.83 1022.02 1022.21 1022.93 1023.25 1023.41 1023.52 1023.63 1023.45 1023.20 1023.08 1023.16 1023.13 1023.24 1023.19 1023.01 1022.92 1023.30 1023.44 1023.75 1024.22 1024.44 1024.34 1023.96 1023.71 1023.27 1022.85 1022.64 1022.38 1022.08 1021.91 1021.65
1020.47 1020.77 1021.16 1021.54 1021.74 1021.84 1021.89 1021.93 1022.25 1022.52 1022.98 1023.35 1023.51 1023.43 1023.45 1023.21 1023.25 1023.32 1023.41 1023.38 1023.42 1023.24 1022.65 1022.73 1023.06 1023.46 1023.78 1023.87 1023.83 1023.57 1023.35 1023.57 1022.85 1022.73 1022.44 1021.91 1021.39 1021.23
1020.46 1020.87 1021.39 1021.78 1021.99 1021.88 1021.80 1021.86 1022.06 1022.40 1022.62 1022.88 1023.05 1023.08 1023.19 1023.42 1023.61 1023.48 1023.41 1023.47 1023.58 1023.57 1023.32 1022.96 1022.77 1022.77 1022.87 1023.00 1023.34 1023.27 1023.10 1022.85 1022.44 1022.43 1022.34 1022.09 1021.27 1020.66
1020.23 1020.55 1020.92 1021.21 1021.35 1021.37 1021.40 1021.45 1021.53 1021.83 1022.07 1022.28 1022.70 1022.71 1022.99 1023.17 1023.27 1023.40 1023.45 1023.54 1023.63 1023.61 1023.56 1023.32 1023.22 1023.17 1023.19 1022.78 1022.46 1022.64 1022.54 1022.33 1021.89 1021.71 1021.87 1022.19 1021.57 1020.35
1019.21 1019.64 1020.01 1020.26 1020.37 1020.51 1020.65 1020.67 1020.81 1020.96 1021.13 1021.51 1022.00 1022.11 1022.36 1022.77 1023.13 1023.26 1023.38 1023.48 1023.52 1023.48 1023.30 1023.05 1023.10 1023.25 1023.55 1023.52 1022.26 1021.71 1022.04 1021.76 1021.59 1021.54 1021.44 1021.44 1021.28 1020.18
1018.33 1018.55 1018.83 1019.14 1019.51 1019.65 1019.61 1019.75 1020.04 1020.23 1020.47 1020.62 1021.02 1021.41 1021.81 1022.16 1022.56 1022.66 1022.75 1022.94 1023.08 1023.07 1023.02 1022.98 1023.00 1023.10 1023.41 1023.03 1022.53 1021.42 1021.21 1021.22 1021.33 1021.42 1021.31 1021.05 1020.71 1019.63
1017.37 1017.43 1017.52 1017.88 1018.10 1018.26 1018.45 1018.75 1018.97 1019.34 1019.76 1020.18 1020.49 1020.75 1021.23 1021.60 1021.74 1021.79 1021.80 1022.01 1022.35 1022.81 1022.92 1022.73 1022.31 1021.91 1022.26 1022.46 1022.51 1021.89 1021.06 1020.76 1020.76 1020.84 1020.96 1021.09 1020.50 1020.17
1015.63 1015.89 1016.10 1016.44 1016.68 1016.95 1017.21 1017.51 1017.88 1018.25 1018.71 1019.30 1019.71 1019.98 1020.36 1020.83 1020.90 1021.09 1021.21 1021.15 1021.58 1021.77 1021.91 1021.70 1021.46 1021.65 1021.89 1022.07 1022.04 1021.77 1021.45 1021.01 1020.58 1020.40 1020.17 1020.14 1020.10 1019.84
1013.87 1014.17 1014.61 1014.98 1015.30 1015.56 1015.85 1016.30 1016.71 1017.08 1017.38 1017.65 1018.06 1018.79 1019.33 1019.85 1020.32 1020.60 1021.03 1021.27 1020.69 1020.76 1021.06 1021.36 1021.22 1021.37 1021.52 1021.69 1021.60 1021.46 1021.23 1021.16 1021.06 1020.69 1020.10 1019.22 1018.92 1018.82
Thickness
5780 5782 5781 5783 5783 5779 5778 5773 5764 5746 5737 5740 5736 5735 5730 5727 5721 5715 5712 5709 5705 5705 5703 5699 5698 5695 5692 5689 5687 5685 5681 5678 5675 5671 5669 5668 5668 5670
5777 5779 5780 5780 5779 5777 5775 5773 5768 5755 5739 5740 5737 5734 5729 5723 5715 5713 5712 5708 5704 5700 5697 5696 5690 5685 5680 5678 5675 5671 5668 5664 5661 5658 5657 5655 5655 5655
5774 5775 5775 5776 5773 5771 5770 5770 5765 5760 5744 5738 5733 5729 5723 5719 5714 5708 5703 5702 5696 5693 5689 5686 5681 5675 5671 5668 5664 5659 5658 5655 5652 5646 5644 5643 5642 5642
5771 5772 5771 5773 5769 5767 5767 5764 5761 5756 5746 5732 5726 5722 5719 5715 5710 5705 5699 5696 5693 5689 5684 5680 5675 5670 5663 5659 5654 5651 5648 5646 5642 5638 5633 5631 5629 5629
5771 5769 5767 5768 5764 5763 5763 5761 5756 5750 5742 5733 5722 5717 5717 5714 5708 5702 5699 5693 5689 5683 5679 5674 5669 5664 5658 5652 5647 5642 5638 5635 5632 5626 5623 5621 5620 5618
5769 5768 5765 5764 5763 5761 5759 5755 5751 5744 5737 5727 5717 5712 5708 5706 5701 5695 5691 5688 5683 5682 5675 5670 5663 5657 5651 5644 5638 5633 5628 5623 5620 5616 5612 5610 5608 5607
5764 5766 5765 5765 5763 5761 5758 5751 5747 5738 5730 5721 5713 5707 5701 5696 5690 5686 5683 5680 5677 5677 5671 5664 5658 5652 5646 5637 5630 5625 5620 5616 5612 5606 5601 5596 5594 5591
5761 5761 5761 5762 5759 5757 5754 5750 5745 5735 5725 5717 5708 5700 5695 5690 5685 5682 5678 5674 5665 5666 5662 5658 5654 5648 5642 5632 5625 5619 5612 5605 5598 5593 5588 5584 5578 5573
5759 5758 5759 5758 5754 5751 5748 5743 5738 5732 5726 5716 5705 5698 5692 5688 5684 5680 5675 5668 5662 5658 5654 5650 5649 5644 5637 5629 5620 5613 5603 5596 5594 5588 5580 5572 5565 5558
5760 5758 5757 5754 5750 5747 5742 5735 5729 5724 5718 5710 5703 5697 5694 5687 5684 5679 5673 5667 5661 5657 5652 5643 5640 5635 5630 5622 5614 5605 5597 5590 5584 5579 5570 5562 5554 5546
5760 5757 5755 5751 5750 5746 5738 5729 5723 5718 5712 5705 5699 5694 5688 5685 5681 5675 5667 5658 5649 5648 5646 5639 5633 5626 5623 5616 5609 5600 5590 5581 5574 5567 5562 5555 5547 5538
5756 5755 5753 5752 5750 5745 5738 5731 5723 5717 5711 5703 5696 5690 5686 5680 5675 5671 5664 5652 5642 5640 5639 5632 5625 5619 5614 5611 5603 5594 5585 5575 5568 5558 5551 5541 5533 5526
5755 5752 5752 5752 5748 5742 5736 5726 5720 5712 5706 5698 5692 5687 5681 5676 5671 5666 5661 5653 5641 5633 5633 5626 5617 5611 5604 5597 5593 5587 5576 5566 5559 5553 5542 5534 5525 5515
5756 5753 5751 5748 5744 5739 5732 5725 5716 5707 5697 5692 5687 5680 5674 5669 5667 5661 5655 5649 5644 5638 5634 5629 5619 5609 5599 5588 5580 5575 5567 5561 5552 5545 5539 5530 5520 5511
5757 5753 5749 5742 5739 5734 5725 5719 5712 5699 5691 5686 5682 5677 5673 5670 5665 5659 5653 5645 5641 5638 5633 5624 5616 5605 5593 5582 5573 5567 5559 5552 5547 5541 5532 5525 5516 5508
5756 5750 5745 5739 5733 5727 5720 5714 5704 5697 5686 5680 5676 5673 5668 5664 5660 5655 5647 5641 5635 5631 5632 5623 5614 5602 5590 5580 5571 5565 5556 5544 5541 5533 5527 5521 5515 5507
5750 5744 5738 5731 5725 5721 5715 5709 5700 5692 5686 5679 5673 5670 5666 5660 5654 5650 5644 5638 5632 5626 5621 5617 5611 5603 5592 5581 5569 5559 5551 5544 5539 5531 5521 5513 5512 5509
5748 5742 5736 5730 5725 5720 5713 5707 5700 5692 5686 5680 5672 5670 5664 5659 5653 5645 5639 5634 5627 5620 5613 5606 5599 5591 5581 5575 5568 5557 5548 5542 5537 5531 5521 5509 5504 5505
5751 5744 5741 5735 5730 5722 5715 5709 5701 5696 5690 5682 5675 5672 5666 5657 5649 5644 5637 5630 5623 5615 5610 5603 5594 5582 5570 5557 5559 5556 5545 5539 5534 5526 5518 5510 5502 5502
5753 5749 5743 5738 5731 5724 5718 5712 5704 5698 5692 5687 5679 5673 5665 5657 5648 5641 5634 5627 5619 5611 5604 5595 5585 5574 5563 5557 5552 5552 5545 5537 5529 5522 5516 5507 5501 5500
5754 5751 5747 5742 5737 5730 5723 5716 5708 5700 5694 5687 5680 5672 5663 5655 5648 5642 5636 5626 5616 5603 5595 5586 5581 5576 5568 5558 5547 5542 5539 5535 5527 5518 5510 5502 5496 5491
5762 5757 5752 5747 5742 5735 5729 5722 5712 5705 5697 5687 5679 5671 5662 5652 5647 5639 5631 5625 5613 5604 5594 5587 5582 5573 5565 5554 5545 5538 5531 5526 5521 5515 5510 5503 5492 5485
5768 5764 5757 5751 5746 5740 5733 5725 5717 5709 5701 5695 5687 5675 5664 5654 5642 5634 5625 5616 5614 5606 5594 5583 5576 5568 5560 5550 5543 5535 5531 5522 5511 5507 5504 5500 5495 5488